Location: Antioch Baptist Church
(32.6696°N, 85.7327°W)
Time: 10:39:02
(UTC+00:00)

Cosmos 1315 Rocket - Pass Details

Date: 14 July 2020
Orbit: 530 x 568 km, 81.2° (Epoch: 08 August)

Event Time Altitude Azimuth Distance (km) Brightness Sun altitude
Rises 02:34:39 0° 352° (N) 2,767 7.2 -18.6°
Reaches altitude 10° 02:36:50 10° 352° (N) 1,869 6.2 -18.9°
Maximum altitude 02:40:58 89° 262° (W) 572 2.8 -19.6°
Enters shadow 02:42:12 45° 174° (S) 777 3.2 -19.8°
